CW8593 Weather Reports


Display with metric or nautical units.
time (UTC)temp
F
wind
direction
speed
MPH
gust
MPH
rain 1hr
in
rain 24hr
in
rain mn
in
humidity
%
barometer
mb
20150227113248 59 273 14.0 23.0 0.00 0.00 0.00 29 1012.3
20150227105247 60 22 2.0 7.0 0.00 0.00 0.00 47 1012.0
20150227104247 58 308 4.0 8.0 0.00 0.00 0.00 49 1012.0
20150227103245 57 33 3.0 7.0 0.00 0.00 0.00 51 1012.1
20150227102245 57 24 1.0 5.0 0.00 0.00 0.00 52 1012.1
20150227101245 57 25 1.0 7.0 0.00 0.00 0.00 53 1012.0
20150227100246 56 300 4.0 7.0 0.00 0.00 0.00 55 1012.3
20150227095245 55 306 2.0 6.0 0.00 0.00 0.00 57 1012.3
20150227094247 55 317 5.0 12.0 0.00 0.00 0.00 58 1012.3
20150227093247 55 331 5.0 10.0 0.00 0.00 0.00 58 1012.4
20150227092247 54 346 4.0 9.0 0.00 0.00 0.00 59 1012.4
20150227090248 54 355 5.0 10.0 0.00 0.00 0.00 63 1012.3
20150227085245 53 0 4.0 13.0 0.00 0.00 0.00 65 1012.3
20150227084246 53 0 2.0 13.0 0.00 0.00 0.00 66 1012.2
20150227083246 53 355 3.0 9.0 0.00 0.00 0.00 66 1012.2
20150227082246 53 355 5.0 10.0 0.00 0.00 0.00 67 1012.2
20150227080246 53 19 0.0 3.0 0.00 0.00 0.00 73 1012.0
20150227075247 52 18 1.0 9.0 0.00 0.00 0.00 74 1012.0
20150227074246 52 311 3.0 10.0 0.00 0.00 0.00 75 1012.0
20150227072245 52 317 0.0 3.0 0.00 0.00 0.00 78 1011.9
20150227071245 52 317 1.0 3.0 0.00 0.00 0.00 78 1011.8
20150227064245 51 317 2.0 3.0 0.00 0.00 0.00 80 1011.7
20150227062246 50 315 0.0 2.0 0.00 0.00 0.00 80 1011.9
20150227061245 50 315 0.0 0.0 0.00 0.00 0.00 78 1011.9
20150227060245 51 315 0.0 2.0 0.00 0.00 0.00 78 1011.8
20150227055245 51 315 0.0 1.0 0.00 0.00 0.00 77 1011.9
20150227054246 52 315 0.0 1.0 0.00 0.00 0.00 77 1011.9
20150227052246 52 315 0.0 3.0 0.00 0.00 0.00 76 1011.8
20150227051247 52 315 2.0 3.0 0.00 0.00 0.00 75 1011.8
20150227050246 53 315 0.0 3.0 0.00 0.00 0.00 75 1011.8
20150227045246 53 315 0.0 2.0 0.00 0.00 0.00 75 1011.9
20150227044245 53 315 2.0 3.0 0.00 0.00 0.00 74 1011.7
20150227043246 53 315 0.0 3.0 0.00 0.00 0.00 74 1011.8
20150227042245 53 315 1.0 3.0 0.00 0.00 0.00 73 1011.9
20150227041246 54 315 1.0 3.0 0.00 0.00 0.00 73 1012.0
20150227035245 53 315 2.0 3.0 0.00 0.00 0.00 75 1012.3
20150227034245 53 315 0.0 0.0 0.00 0.00 0.00 75 1012.4
20150227033245 53 315 0.0 1.0 0.00 0.00 0.00 75 1012.4
20150227032246 53 315 0.0 5.0 0.00 0.00 0.00 74 1012.4
20150227031246 53 315 2.0 5.0 0.00 0.00 0.00 74 1012.5
20150227024245 53 315 1.0 3.0 0.00 0.00 0.00 75 1013.0
20150227023245 53 315 1.0 3.0 0.00 0.00 0.00 75 1013.1
20150227022246 53 315 0.0 2.0 0.00 0.00 0.00 75 1013.1
20150227021246 54 315 0.0 1.0 0.00 0.00 0.00 75 1013.1
20150227015246 54 315 1.0 5.0 0.00 0.00 0.00 74 1013.8
20150227014246 54 315 2.0 6.0 0.00 0.00 0.00 75 1013.8
20150227013245 54 298 2.0 6.0 0.00 0.00 0.00 76 1013.9
20150227012245 53 297 3.0 6.0 0.00 0.00 0.00 79 1013.9
20150227011245 53 247 0.0 1.0 0.00 0.00 0.00 80 1013.9
20150227010245 53 247 0.0 2.0 0.00 0.00 0.00 80 1014.0
20150227004245 53 247 0.0 2.0 0.00 0.00 0.00 79 1014.4
20150227001247 53 246 1.0 3.0 0.00 0.00 0.00 79 1015.0
20150227000246 53 247 0.0 2.0 0.00 0.00 0.00 78 1015.0
20150226235245 53 247 1.0 3.0 0.00 0.00 0.00 79 1015.0
20150226234246 53 247 0.0 3.0 0.00 0.00 0.00 79 1015.3
20150226233246 52 247 2.0 3.0 0.00 0.00 0.00 79 1015.4
20150226231246 52 246 1.0 5.0 0.00 0.00 0.00 79 1015.6
20150226230247 52 173 0.0 1.0 0.00 0.00 0.00 79 1015.5
20150226225245 52 173 0.0 0.0 0.00 0.00 0.00 79 1015.6
20150226224245 53 172 0.0 0.0 0.00 0.00 0.00 79 1015.7
20150226223245 53 173 0.0 3.0 0.00 0.00 0.00 79 1015.7
20150226222246 52 171 1.0 2.0 0.00 0.00 0.00 79 1015.6
20150226221245 52 171 0.0 0.0 0.00 0.00 0.00 79 1015.6
20150226215245 52 171 0.0 0.0 0.00 0.00 0.00 79 1016.1
20150226213245 52 171 1.0 3.0 0.00 0.00 0.00 80 1016.2
20150226210245 53 171 0.0 2.0 0.00 0.00 0.00 81 1016.5
20150226205245 53 171 0.0 0.0 0.00 0.00 0.00 81 1016.5
20150226203245 53 171 0.0 2.0 0.00 0.00 0.00 81 1016.3
20150226201244 53 171 0.0 3.0 0.00 0.00 0.00 81 1016.2
20150226200245 53 171 1.0 2.0 0.00 0.00 0.00 81 1016.2
20150226195247 54 171 0.0 2.0 0.00 0.00 0.00 81 1016.2
20150226194246 53 171 1.0 3.0 0.00 0.00 0.00 81 1016.5
20150226185245 54 158 2.0 3.0 0.00 0.00 0.00 80 1016.9
20150226182245 55 157 0.0 2.0 0.00 0.00 0.00 79 1016.9
20150226181245 55 158 0.0 3.0 0.00 0.00 0.00 80 1016.9
20150226180245 55 158 0.0 3.0 0.00 0.00 0.00 81 1016.8
20150226175245 56 151 0.0 3.0 0.00 0.00 0.00 82 1016.9
20150226174245 56 151 1.0 3.0 0.00 0.00 0.00 82 1016.8
20150226173245 56 151 0.0 1.0 0.00 0.00 0.00 82 1016.8
20150226171245 56 151 1.0 2.0 0.00 0.00 0.00 82 1016.7
20150226170245 56 151 1.0 2.0 0.00 0.00 0.00 81 1016.6
20150226164245 56 151 0.0 3.0 0.00 0.00 0.00 82 1016.4
20150226163244 56 150 1.0 3.0 0.00 0.00 0.00 82 1016.4
20150226162245 56 151 2.0 6.0 0.00 0.00 0.00 82 1016.3
20150226161245 57 141 2.0 6.0 0.00 0.00 0.00 80 1016.4
20150226154245 58 90 2.0 6.0 0.00 0.00 0.00 76 1016.2
20150226153245 58 128 2.0 5.0 0.00 0.00 0.00 77 1016.2
20150226152245 58 164 0.0 3.0 0.00 0.00 0.00 78 1016.2
20150226151245 57 164 1.0 5.0 0.00 0.00 0.00 79 1016.5
20150226150245 57 165 3.0 5.0 0.00 0.00 0.00 79 1016.5
20150226145244 57 165 2.0 3.0 0.00 0.00 0.00 79 1016.6
20150226142246 57 190 2.0 7.0 0.00 0.00 0.00 78 1016.8
20150226140244 56 163 5.0 9.0 0.00 0.00 0.00 77 1017.0
20150226135245 57 168 5.0 12.0 0.00 0.00 0.00 75 1017.2
20150226131245 60 158 5.0 9.0 0.00 0.00 0.00 62 1017.3
20150226130244 59 161 5.0 9.0 0.00 0.00 0.00 61 1017.3
20150226125247 59 141 6.0 12.0 0.00 0.00 0.00 61 1017.6
20150226124245 59 167 5.0 9.0 0.00 0.00 0.00 62 1017.6
20150226123244 59 175 5.0 9.0 0.00 0.00 0.00 63 1017.6
20150226122245 59 134 0.0 5.0 0.00 0.00 0.00 66 1017.7
20150226121245 57 130 1.0 6.0 0.00 0.00 0.00 68 1018.0
20150226115246 57 211 2.0 5.0 0.00 0.00 0.00 73 1018.2
20150226114245 56 178 1.0 3.0 0.00 0.00 0.00 75 1018.4